Find Starlink 30307

NORAD ID: 57747 Int'l Des: 2023-131 Owner: SPXS Country: US Constellation: starlink operational
LEOCIRCULAR

リアルタイム位置

3D地球を読み込み中...

Starlink 30307について

説明を読み込み中...

次回通過

Passes for default location (London). Set your location on the main map for personalized predictions.

高度履歴

Loading altitude history...

軌道要素

1 57747U 23131R 26132.82836981 .00000661 00000-0 33566-4 0 9999
2 57747 43.0030 170.3953 0001177 238.2980 121.7756 15.27558359149720
Epoch: May 12, 2026 • Age: 16 hours

現在のステータス

高度 486.8 km
速度 7.63 km/s
衛星直下点 42.52°N, 142.59°W
打ち上げ日 Sep 1, 2023
運用期間 2.6 years
タイプ internet

技術仕様

分類 Payload
質量 730.00 kg
乾燥質量 700.00 kg
総質量 730.00 kg
長さ 0.30 m
直径 4.10 m
スパン 29.00 m
形状 Box + pan
製造者 SPXS
バスタイプ Starlink V2M
フェーズステータス In Orbit
所有者/国 SPXS/US

Most Searched